Weather History for VTSP - May, 2013

Change the Weather History Date:

Wednesday, May 8, 2013

  Actual Average Record
Temperature  
Mean Temperature 85 °F -  
Max Temperature 93 °F 89 °F 98 °F (1997)
Min Temperature 77 °F 78 °F 73 °F (1999)
Cooling Degree Days 20    
Growing Degree Days 35 (Base 50)    
Moisture  
Dew Point 77 °F    
Average Humidity 78    
Maximum Humidity 94    
Minimum Humidity 52    
Precipitation  
Precipitation 0.00 in 0.43 in - ()
Sea Level Pressure  
Sea Level Pressure 29.77 in    
Wind  
Wind Speed 2 mph ()    
Max Wind Speed 12 mph    
Max Gust Speed -    
Visibility 5.9 miles    
Events      
Averages and records for this station are not official NWS values.
T = Trace of Precipitation, MM = Missing Value Source: Averaged Metar Reports

Daily Weather History Graph

Daily Weather History Graph

Search for Another Location

Airport or City:

Trip Planner

Search our weather history database for the weather conditions in past years. The results will help you decide how hot, cold, wet, or windy it might be!

Date:

Astronomy

May. 08, 2013 Rise Set
Actual Time 6:09 AM ICT 6:36 PM ICT
Civil Twilight 5:47 AM ICT 6:58 PM ICT
Nautical Twilight 5:22 AM ICT 7:24 PM ICT
Astronomical Twilight 4:56 AM ICT 7:50 PM ICT
Moon 4:41 AM ICT (5/8) 5:17 PM ICT (5/8)
Length of Visible Light 13h 11m
Length of Day
12h 27m
Waning Crescent, 3% of the Moon is Illuminated
May 8
Waning Crescent
May 10
New
May 18
First Quarter
May 25
Full
Jun 1
Last Quarter

Hourly Weather History & Observations

Time (ICT) Temp. Heat Index Dew Point Humidity Pressure Visibility Wind Dir Wind Speed Gust Speed Precip Events Conditions
12:00 AM 80.6 °F 87.1 °F 77.0 °F 89% 29.83 in 6.2 mi Calm Calm - N/A   Mostly Cloudy
12:30 AM 80.6 °F 87.1 °F 77.0 °F 89% 29.80 in 6.2 mi Calm Calm - N/A   Mostly Cloudy
1:00 AM 82 °F - 79 °F 87% 29.76 in 6 mi Calm Calm - -   Scattered Clouds
1:00 AM 80.6 °F 87.1 °F 77.0 °F 89% 29.80 in 6.2 mi Calm Calm - N/A   Mostly Cloudy
2:00 AM 80.6 °F 87.1 °F 77.0 °F 89% 29.80 in 6.2 mi West 5.8 mph - N/A   Mostly Cloudy
2:30 AM 80.6 °F 87.1 °F 77.0 °F 89% 29.77 in 6.2 mi Calm Calm - N/A   Mostly Cloudy
3:00 AM 80.6 °F 87.1 °F 77.0 °F 89% 29.77 in 6.2 mi Calm Calm - N/A   Mostly Cloudy
3:30 AM - - - N/A% 29.77 in 6.2 mi Calm Calm - N/A   Mostly Cloudy
4:00 AM 80.6 °F 87.1 °F 77.0 °F 89% 29.77 in 6.2 mi Calm Calm - N/A   Mostly Cloudy
4:30 AM 80.6 °F 87.1 °F 77.0 °F 89% 29.77 in 6.2 mi Calm Calm - N/A   Scattered Clouds
5:00 AM 80.6 °F 87.1 °F 77.0 °F 89% 29.77 in 6.2 mi Calm Calm - N/A   Scattered Clouds
5:30 AM 78.8 °F - 77.0 °F 94% 29.77 in 6.2 mi Calm Calm - N/A   Scattered Clouds
6:00 AM 78.8 °F - 77.0 °F 94% 29.80 in 6.2 mi Calm Calm - N/A   Mostly Cloudy
6:30 AM 78.8 °F - 77.0 °F 94% 29.80 in 6.2 mi Calm Calm - N/A   Scattered Clouds
7:00 AM 81 °F - 79 °F 92% 29.77 in 6 mi Calm Calm - -   Partly Cloudy
7:00 AM 80.6 °F 88.1 °F 78.8 °F 94% 29.80 in 6.2 mi Calm Calm - N/A   Mostly Cloudy
7:30 AM 82.4 °F 92.4 °F 78.8 °F 89% 29.83 in 6.2 mi Calm Calm - N/A   Mostly Cloudy
8:00 AM 84.2 °F 96.1 °F 78.8 °F 84% 29.83 in 6.2 mi Calm Calm - N/A   Mostly Cloudy
8:30 AM 84.2 °F 96.1 °F 78.8 °F 84% 29.83 in 5.6 mi Variable 3.5 mph - N/A   Mostly Cloudy
9:00 AM 84.2 °F 96.1 °F 78.8 °F 84% 29.83 in 5.6 mi Variable 3.5 mph - N/A   Mostly Cloudy
9:30 AM 86.0 °F 96.9 °F 77.0 °F 74% 29.83 in - North - - N/A   Mostly Cloudy
10:00 AM 87.8 °F 97.6 °F 75.2 °F 66% 29.83 in 6.2 mi Variable 2.3 mph - N/A   Mostly Cloudy
10:30 AM 89.6 °F 99.8 °F 75.2 °F 62% 29.83 in 6.2 mi Variable 3.5 mph - N/A   Mostly Cloudy
11:00 AM 87.8 °F 97.6 °F 75.2 °F 66% 29.83 in 6.2 mi Variable 3.5 mph - N/A   Mostly Cloudy
11:30 AM 87.8 °F 97.6 °F 75.2 °F 66% 29.80 in 6.2 mi ENE 10.4 mph - N/A   Mostly Cloudy
12:00 PM 89.6 °F 99.8 °F 75.2 °F 62% 29.80 in 6.2 mi East 9.2 mph - N/A   Mostly Cloudy
12:30 PM 91.4 °F 102.5 °F 75.2 °F 59% 29.80 in 5.6 mi Variable 6.9 mph - N/A   Mostly Cloudy
1:00 PM 89 °F - 78 °F 64% 29.75 in 6 mi West 3.5 mph - -   Scattered Clouds
1:00 PM 87.8 °F 99.7 °F 77.0 °F 70% 29.77 in 5.6 mi WSW 6.9 mph - N/A   Mostly Cloudy
1:30 PM 87.8 °F 97.6 °F 75.2 °F 66% 29.74 in 5.6 mi WSW 10.4 mph - N/A   Mostly Cloudy
2:00 PM 89.6 °F 102.2 °F 77.0 °F 66% 29.74 in 5.6 mi WSW 6.9 mph - N/A   Mostly Cloudy
2:30 PM 91.4 °F 105.1 °F 77.0 °F 63% 29.71 in 6.2 mi West 5.8 mph - N/A   Mostly Cloudy
3:00 PM 91.4 °F 98.4 °F 71.6 °F 52% 29.71 in 6.2 mi Variable 3.5 mph - N/A   Mostly Cloudy
3:30 PM 91.4 °F 105.1 °F 77.0 °F 63% 29.68 in 6.2 mi WSW 8.1 mph - N/A   Mostly Cloudy
4:30 PM 89.6 °F 102.2 °F 77.0 °F 66% 29.68 in 6.2 mi SW 10.4 mph - N/A   Mostly Cloudy
5:00 PM 89.6 °F 102.2 °F 77.0 °F 66% 29.68 in 6.2 mi SW 11.5 mph - N/A   Mostly Cloudy
5:30 PM 87.8 °F 102.5 °F 78.8 °F 75% 29.68 in 6.2 mi SW 9.2 mph - N/A   Mostly Cloudy
6:00 PM 87.8 °F 99.7 °F 77.0 °F 70% 29.68 in 5.6 mi SW 10.4 mph - N/A   Mostly Cloudy
6:30 PM 86.0 °F 96.9 °F 77.0 °F 74% 29.68 in 5.6 mi SSW 6.9 mph - N/A   Mostly Cloudy
7:00 PM 87 °F - 79 °F 71% 29.68 in 6 mi SW 3.5 mph - -   Scattered Clouds
7:00 PM 86.0 °F 96.9 °F 77.0 °F 74% 29.71 in 5.6 mi SSW 4.6 mph - N/A   Mostly Cloudy
7:30 PM 86.0 °F 96.9 °F 77.0 °F 74% 29.71 in 5.6 mi SSW 3.5 mph - N/A   Mostly Cloudy
8:00 PM 86.0 °F 96.9 °F 77.0 °F 74% 29.74 in 5.6 mi Variable 3.5 mph - N/A   Mostly Cloudy
8:30 PM 82.4 °F 90.9 °F 77.0 °F 84% 29.74 in 5.0 mi Calm Calm - N/A   Mostly Cloudy
9:00 PM 82.4 °F 90.9 °F 77.0 °F 84% 29.77 in 5.0 mi Calm Calm - N/A   Mostly Cloudy
9:30 PM 84.2 °F 94.1 °F 77.0 °F 79% 29.77 in 5.0 mi Calm Calm - N/A   Mostly Cloudy
10:00 PM 80.6 °F 87.1 °F 77.0 °F 89% 29.80 in 5.6 mi Calm Calm - N/A   Mostly Cloudy
10:30 PM 80.6 °F 87.1 °F 77.0 °F 89% 29.83 in 5.0 mi Calm Calm - N/A   Mostly Cloudy
11:00 PM 80.6 °F 87.1 °F 77.0 °F 89% 29.80 in 5.0 mi Calm Calm - N/A   Mostly Cloudy
11:30 PM 80.6 °F 87.1 °F 77.0 °F 89% 29.83 in 5.0 mi Calm Calm - N/A   Mostly Cloudy